This is the latest recevied weather packets stored in our database for station/object APPOWX. If no packets are shown the sender has not sent any weather packets the latest 1 day(s).
| Time | Temp. | Humidity | Pressure | Rain* | Wind** | Luminosity | Snow |
|---|---|---|---|---|---|---|---|
| 1778016755 | 25° C | 38% | 1014.6 hPa | 0 mm | 0 m/s | - | - |
| 1778016695 | 25° C | 39% | 1014.6 hPa | 0 mm | 0.45 m/s, 44° | - | - |
| 1778016634 | 24.44° C | 37% | 1014.6 hPa | 0 mm | 0.89 m/s, 71° | - | - |
| 1778016574 | 24.44° C | 37% | 1014.5 hPa | 0 mm | 0.89 m/s, 17° | - | - |
| 1778016514 | 24.44° C | 39% | 1014.7 hPa | 0 mm | 1.34 m/s, 62° | - | - |
| 1778016455 | 24.44° C | 40% | 1014.6 hPa | 0 mm | 0 m/s | - | - |
| 1778016394 | 24.44° C | 38% | 1014.6 hPa | 0 mm | 0 m/s | - | - |
| 1778016333 | 24.44° C | 39% | 1014.5 hPa | 0 mm | 0.45 m/s, 65° | - | - |
| 1778016274 | 24.44° C | 37% | 1014.7 hPa | 0 mm | 0.45 m/s, 32° | - | - |
| 1778016214 | 24.44° C | 39% | 1014.5 hPa | 0 mm | 0.45 m/s, 71° | - | - |
| 1778016154 | 25° C | 37% | 1014.7 hPa | 0 mm | 0.89 m/s, 71° | - | - |
| 1778016094 | 25° C | 39% | 1014.6 hPa | 0 mm | 0.45 m/s, 76° | - | - |
| 1778016033 | 25° C | 37% | 1014.7 hPa | 0 mm | 0 m/s | - | - |
| 1778015974 | 25° C | 36% | 1014.6 hPa | 0 mm | 0 m/s | - | - |
| 1778015914 | 25° C | 37% | 1014.6 hPa | 0 mm | 0.89 m/s, 76° | - | - |
| 1778015854 | 25° C | 35% | 1014.5 hPa | 0 mm | 1.34 m/s, 76° | - | - |
| 1778015793 | 25° C | 36% | 1014.8 hPa | 0 mm | 0.45 m/s, 82° | - | - |
| 1778015733 | 25° C | 37% | 1014.7 hPa | 0 mm | 0.89 m/s, 21° | - | - |
| 1778015673 | 25° C | 35% | 1014.6 hPa | 0 mm | 0.89 m/s, 17° | - | - |
| 1778015613 | 25° C | 36% | 1014.5 hPa | 0 mm | 0.45 m/s, 48° | - | - |
| 1778015553 | 25° C | 36% | 1014.8 hPa | 0 mm | 0.89 m/s, 94° | - | - |
| 1778015493 | 25° C | 36% | 1014.8 hPa | 0 mm | 0.45 m/s, 47° | - | - |
| 1778015432 | 25° C | 36% | 1014.6 hPa | 0 mm | 0.45 m/s, 359° | - | - |
| 1778015372 | 25° C | 37% | 1014.6 hPa | 0 mm | 0 m/s | - | - |
| 1778015312 | 25° C | 37% | 1014.7 hPa | 0 mm | 0 m/s | - | - |
* Rain latest hour (hover to see other rain measurements)
** Current wind speed in m/s (hover to see current wind gust speed)